Regional Weather Roundup
Issued by NWS Charleston, WV

Home | Current Version | Previous Version | Text Only | Print | Product List | Glossary On
Versions: 1 2 3 4 5 6 7 8 9 10 11 12 13 14 15 16 17 18 19 20 21 22 23 24 25 26 27 28 29 30 31 32 33 34 35 36 37 38 39 40 41 42 43 44 45 46 47 48
000
ASUS41 KRLX 310710
RWRRLX
West Virginia Regional Weather Roundup
National Weather Service Charleston WV
300 AM EDT FRI JUL 31 2015

Note: "fair" indicates few or no clouds below 12,000 feet with no
significant weather and/or obstructions to visibility.

WVZ003-310800-
Northern Panhandle of West Virginia

CITY           SKY/WX    TMP DP  RH WIND       PRES   REMARKS
WHEELING       CLEAR     67  58  72 W3        30.01F
$$

WVZ009-310800-
Northwest West Virginia

CITY           SKY/WX    TMP DP  RH WIND       PRES   REMARKS
PARKERSBURG    CLEAR     63  60  90 CALM      30.05S
$$

WVZ006-310800-
Western West Virginia

CITY           SKY/WX    TMP DP  RH WIND       PRES   REMARKS
HUNTINGTON     CLEAR     63  62  97 CALM      30.04F
$$

WVZ015-310800-
West Central West Virginia

CITY           SKY/WX    TMP DP  RH WIND       PRES   REMARKS
CHARLESTON     PTCLDY    64  62  93 CALM      30.04S
$$

WVZ022-031-310800-
North Central West Virginia

CITY           SKY/WX    TMP DP  RH WIND       PRES   REMARKS
CLARKSBURG     PTCLDY    63  61  93 CALM      30.02F
MORGANTOWN     PTCLDY    66  59  78 S3        30.03S
$$

WVZ025-035-042-045-310800-
Southern West Virginia

CITY           SKY/WX    TMP DP  RH WIND       PRES   REMARKS
BECKLEY        CLEAR     60  57  89 CALM      30.11S
LOGAN            N/A     66  64  94 CALM      30.04F
BLUEFIELD      CLEAR     66  56  70 CALM      30.13F
LEWISBURG      CLEAR     60  58  92 CALM      30.09F
$$

WVZ047-310800-
Northern Mountains of West Virginia

CITY           SKY/WX    TMP DP  RH WIND       PRES   REMARKS
ELKINS         MOCLDY    59  57  93 CALM      30.07F
$$

WVZ052-310800-
Eastern Panhandle of West Virginia

CITY           SKY/WX    TMP DP  RH WIND       PRES   REMARKS
MARTINSBURG    PTCLDY    67  59  75 W8        29.95S
PETERSBURG     CLEAR     60  58  96 CALM      30.02S
$$


USA.gov is the U.S. government's official web portal to all federal, state and local government web resources and services.